Location: Little Baddow
(51.7333°N, 0.5667°E)
Time: 05:43:23
(UTC+00:00)

Cosmos 1782 Rocket - Pass Details

Date: 08 November 2025
Orbit: 599 x 626 km, 82.5° (Epoch: 11 December)

Event Time Altitude Azimuth Distance (km) Brightness Sun altitude
Rises 05:30:36 0° 346° (NNW) 2,914 6.8 -14.7°
Reaches altitude 10° 05:32:52 10° 342° (NNW) 1,999 5.9 -14.3°
Maximum altitude 05:37:12 56° 265° (W) 736 3.6 -13.7°
Drops below altitude 10° 05:41:28 10° 187° (S) 1,966 6.2 -13.0°
Sets 05:43:41 0° 183° (S) 2,861 7.1 -12.7°
